{"data":{"norad_id":63511,"intl_designator":"2025-071U","name":"STARLINK-33804","alt_names":[],"object_type":"PAYLOAD","status":"ACTIVE","operator":null,"country":"US","launch_date":"2025-04-07","launch_site_code":"AFWTR","launch_vehicle":null,"mission":null,"orbit_class":"UNKNOWN","rcs_meters":null,"size_class":null,"mass_kg":null,"dimensions":null,"purposes":["comms"],"wikipedia_slug":null,"has_3d_model":false,"image_url":null,"decayed_at":null,"tle_current":{"epoch":"2026-09-20T10:33:20.085984Z","epoch_age_seconds":160950,"freshness":"FRESH","line1":"1 63511U 25071U   26263.43981581  .00020739  00000+0  67796-3 0  9997","line2":"2 63511  53.1603 314.1168 0001138 102.0305 258.0824 15.31711851 82231","mean_motion":15.31711851,"eccentricity":0.0001138,"inclination_deg":53.1603,"raan_deg":314.1168,"arg_perigee_deg":102.0305,"mean_anomaly_deg":258.0824,"bstar":0.00067796,"rev_number":8223,"period_min":94.012460572129,"perigee_km":469.92527005725,"apogee_km":471.48406642094,"semimajor_km":6848.8416682391,"source":"CELESTRAK","updated_at":"2026-09-21T09:00:35.016936Z"}}}